TimeCDT,TemperatureF,Dew PointF,Humidity,Sea Level PressureIn,VisibilityMPH,Wind Direction,Wind SpeedMPH,Gust SpeedMPH,PrecipitationIn,Events,Conditions,WindDirDegrees,DateUTC
12:53 AM,54.0,50.0,86,29.99,9.0,Calm,Calm,-,N/A,,Clear,0,2012-10-21 05:53:00
1:53 AM,52.0,50.0,93,29.99,10.0,Calm,Calm,-,N/A,,Clear,0,2012-10-21 06:53:00
2:53 AM,53.1,50.0,89,30.00,10.0,Calm,Calm,-,N/A,,Scattered Clouds,0,2012-10-21 07:53:00
3:53 AM,52.0,50.0,93,30.00,10.0,Calm,Calm,-,N/A,,Clear,0,2012-10-21 08:53:00
4:53 AM,52.0,48.9,89,30.02,10.0,Calm,Calm,-,N/A,,Clear,0,2012-10-21 09:53:00
5:53 AM,53.1,51.1,93,30.04,10.0,Calm,Calm,-,N/A,,Mostly Cloudy,0,2012-10-21 10:53:00
6:53 AM,52.0,51.1,97,30.05,7.0,Calm,Calm,-,N/A,,Scattered Clouds,0,2012-10-21 11:53:00
7:53 AM,54.0,52.0,93,30.07,10.0,Calm,Calm,-,N/A,,Scattered Clouds,0,2012-10-21 12:53:00
8:53 AM,62.1,57.0,84,30.09,10.0,Calm,Calm,-,N/A,,Clear,0,2012-10-21 13:53:00
9:53 AM,69.1,57.0,65,30.10,10.0,SSE,3.5,-,N/A,,Clear,150,2012-10-21 14:53:00
10:53 AM,73.0,54.0,51,30.11,10.0,SSW,4.6,-,N/A,,Clear,210,2012-10-21 15:53:00
11:53 AM,75.0,52.0,44,30.10,10.0,SSE,6.9,-,N/A,,Clear,150,2012-10-21 16:53:00
12:53 PM,79.0,48.0,34,30.08,10.0,South,10.4,-,N/A,,Clear,180,2012-10-21 17:53:00
1:53 PM,80.1,48.0,32,30.05,10.0,SSW,10.4,-,N/A,,Clear,200,2012-10-21 18:53:00
2:53 PM,77.0,51.1,40,30.05,10.0,South,6.9,-,N/A,,Clear,190,2012-10-21 19:53:00
3:53 PM,79.0,48.9,35,30.05,10.0,South,5.8,-,N/A,,Clear,180,2012-10-21 20:53:00
4:53 PM,78.1,48.9,36,30.05,10.0,South,8.1,-,N/A,,Clear,190,2012-10-21 21:53:00
5:53 PM,73.9,54.0,50,30.06,10.0,South,3.5,-,N/A,,Clear,180,2012-10-21 22:53:00
6:53 PM,66.0,55.9,70,30.06,10.0,Calm,Calm,-,N/A,,Clear,0,2012-10-21 23:53:00
7:53 PM,62.1,55.9,80,30.06,10.0,Calm,Calm,-,N/A,,Clear,0,2012-10-22 00:53:00
8:53 PM,61.0,55.9,83,30.07,10.0,Calm,Calm,-,N/A,,Clear,0,2012-10-22 01:53:00
9:53 PM,59.0,55.9,90,30.08,10.0,Calm,Calm,-,N/A,,Clear,0,2012-10-22 02:53:00
10:53 PM,57.9,55.0,90,30.08,10.0,Calm,Calm,-,N/A,,Clear,0,2012-10-22 03:53:00
11:53 PM,55.9,54.0,93,30.08,10.0,Calm,Calm,-,N/A,,Clear,0,2012-10-22 04:53:00